Flag for Canada Weather past 2 weeks in Burlington, Ontario, Canada

Now
59 °F

Refreshingly cool.


Feels Like: 57 °F
Forecast: 44 / 57 °F
Wind: 12 mph from West

Location: Burlington Piers

Current Time: May 22, 2015 at 3:59:17 PM

Latest Report: May 22, 2015 at 3:00 PM


Visibility: N/A

Pressure: 30.10 "Hg

Humidity: 28%

Dew point: 26 °F

Location of BurlingtonLocation

Historic Weather in Burlington — Graph

°F

Burlington temperature yesterday

Maximum temperature yesterday: 66 °F (at 6:00 PM)
Minimum temperature yesterday: 49 °F (at 2:00 AM)
Average temperature yesterday: 57 °F

Past Weeks' High & Low Weather Summary

 TemperatureHumidityPressure
High80 °F (May 18, 7:00 PM)100% (May 10, 2:00 PM)30.49 "Hg (May 10, 2:00 PM)
Low41 °F (May 20, 5:00 AM)19% (May 21, 5:00 PM)29.75 "Hg (May 12, 1:00 AM)
Average53 °F71%30.06 "Hg
* Reported May 7 2:00 PM — May 22 2:00 PM, Burlington, Weather by CustomWeather, © 2015

Note: Actual official high and low records may vary slightly from our data, if they occured in-between our weather recording intervals... More about our weather records

Advertising

Burlington weather history for previous 24 hours

 ConditionsComfort  
Time TempWeatherWind HumidityBarometerVisibility
2:00 PM
Fri, May 22
58 °FRefreshingly cool.15 mph32%30.09 "HgN/A
1:00 PM49 °FCool.9 mph60%30.07 "HgN/A
12:00 PM49 °FCool.10 mph61%30.06 "HgN/A
11:00 AM49 °FCool.10 mph65%30.06 "HgN/A
10:00 AM50 °FCool.8 mph59%30.05 "HgN/A
9:00 AM50 °FCool.3 mph59%30.04 "HgN/A
8:00 AM48 °FCool.6 mph59%30.02 "HgN/A
7:00 AM47 °FCool.3 mph56%30.00 "HgN/A
6:00 AM47 °FCool.8 mph58%29.97 "HgN/A
5:00 AM48 °FCool.9 mph49%29.93 "HgN/A
4:00 AM50 °FCool.8 mph47%29.92 "HgN/A
3:00 AM53 °FCool.7 mph40%29.90 "HgN/A
2:00 AM55 °FCool.10 mph41%29.88 "HgN/A
1:00 AM54 °FCool.10 mph60%29.88 "HgN/A
12:00 AM55 °FRefreshingly cool.6 mph57%29.86 "HgN/A
11:00 PM
Thu, May 21
57 °FRefreshingly cool.9 mph51%29.87 "HgN/A
10:00 PM58 °FRefreshingly cool.7 mph49%29.87 "HgN/A
9:00 PM60 °FRefreshingly cool.8 mph43%29.86 "HgN/A
8:00 PM62 °FMild.7 mph36%29.85 "HgN/A
7:00 PM65 °FMild.9 mph23%29.84 "HgN/A
6:00 PM66 °FMild.9 mph20%29.84 "HgN/A
5:00 PM66 °FMild.10 mph19%29.83 "HgN/A
4:00 PM65 °FMild.7 mph27%29.84 "HgN/A
3:00 PM65 °FMild.8 mph25%29.86 "HgN/A
Weather by CustomWeather, © 2015

See weather overviewHow to use our weather pages